Location: La Vergne
(36.0160°N, 86.5820°W)
Time: 08:59:11
(UTC-06:00)

Daily predictions for brighter satellites

Satellite Brightness Start Highest point End
(mag) Time Altitude Azimuth Time Altitude Azimuth Time Altitude Azimuth
ERS-2 3.5 17:59:21 10° ESE 18:02:03 20° ENE 18:04:46 10° NNE
Cosmos 1464 Rocket 4.5 17:57:09 10° N 18:02:46 37° ENE 18:08:22 10° SE
COSMO-SKYMED 1 2.9 17:58:44 10° N 18:03:04 72° WNW 18:07:22 10° SSW
Meteor 1-14 Rocket 4.4 18:00:21 10° S 18:05:59 58° E 18:11:45 10° NNE
Cosmos 2056 Rocket 4.2 18:01:19 10° NNW 18:06:41 63° WSW 18:12:01 10° S
MOS 1-B Rocket 4.0 18:01:32 10° SSE 18:08:04 82° ENE 18:13:51 10° N
Cosmos 158 Rocket 3.8 18:03:40 10° S 18:08:31 66° ESE 18:13:21 10° NNE
CZ-4 R/B 3.3 18:06:02 10° SSW 18:09:47 35° W 18:13:29 10° NNW
Iridium 4 Rocket 3.9 18:06:22 10° NNE 18:10:32 30° E 18:14:25 10° SE
Cosmos 1452 Rocket 3.6 18:07:39 10° N 18:12:49 55° ENE 18:17:56 10° SSE
BREEZE-M DEB (TANK) 3.9 18:12:30 10° N 18:13:17 11° NNE 18:14:06 10° NE
Cosmos 1048 Rocket 4.2 18:09:40 10° S 18:14:48 49° ESE 18:19:53 10° NNE
Cosmos 1812 2.7 18:11:20 10° N 18:15:11 64° E 18:19:01 10° SSE
SPOT 3 Rocket 3.5 18:12:10 10° SSE 18:17:19 70° ENE 18:22:31 10° N
Aureole 3 4.1 18:12:42 10° S 18:18:53 89° E 18:23:43 10° N
Cosmos 2263 Rocket 3.8 18:21:20 10° ESE 18:23:05 12° ESE 18:23:05 12° ESE
Okean 3 3.3 18:20:39 10° N 18:24:49 70° E 18:28:58 10° SSE
Cosmos 2333 Rocket 4.4 18:20:12 10° NW 18:25:01 29° WSW 18:29:47 10° SSW
Cosmos 1674 Rocket 3.5 18:21:12 10° N 18:25:33 90° S 18:29:51 10° S
OAO 2 Rocket 3.4 18:21:15 10° WSW 18:26:11 68° S 18:29:58 17° E
IUS-18 SRM-1 4.2 18:28:07 10° SSW 18:29:21 13° S 18:30:54 10° SSE
Meteor 1-18 Rocket 4.2 18:25:27 10° N 18:30:59 61° E 18:36:27 10° SSE
Cosmos 1908 Rocket 3.5 18:26:59 10° S 18:31:26 79° E 18:35:55 10° N
Cosmos 1420 Rocket 4.0 18:27:10 10° NNW 18:32:27 67° ENE 18:37:42 10° SSE
Cosmos 921 Rocket 3.7 18:28:58 10° N 18:33:07 35° ENE 18:37:12 10° SE
Meteor 1-25 Rocket 4.3 18:31:11 10° S 18:36:43 83° W 18:42:19 10° N
Cosmos 2034 Rocket 4.1 18:32:46 10° N 18:39:00 54° E 18:45:12 10° SSE
FREGAT/IRIS 2.4 18:36:49 10° SSE 18:39:44 62° ENE 18:42:40 10° N
Cosmos 1891 Rocket 4.4 18:33:51 10° N 18:40:02 66° E 18:46:03 10° SSE
Tiangong 2 1.4 18:37:18 10° WNW 18:40:27 64° SSW 18:42:18 22° SE
Cosmos 1437 Rocket 2.8 18:39:32 10° S 18:43:31 60° E 18:47:33 10° NNE
Cosmos 2227 4.3 18:38:42 10° S 18:44:14 52° ESE 18:49:46 10° NNE
EO 1 Del DPAF 4.5 18:40:57 10° N 18:44:35 44° WNW 18:48:13 10° SW
Meteor 1-11 Rocket 4.3 18:42:01 10° SSE 18:46:55 33° E 18:51:54 10° NNE
Cosmos 44 Rocket 3.3 18:43:08 10° NNW 18:48:13 80° ENE 18:53:22 10° SSE
ARGOS Delta rocket 3.9 18:44:51 10° NNE 18:49:29 48° E 18:53:51 10° S
SeaSat 1 3.1 18:50:15 25° E 18:52:11 35° ENE 18:56:39 10° N
Gbstr 26 Del rocket 2.5 18:49:57 10° SW 18:53:39 75° SE 18:55:12 34° ENE
Meteor 1-4 Rocket 4.1 18:54:21 10° SSE 18:55:43 21° SSE 18:55:43 21° SSE
USA 215 3.2 18:52:59 11° NE 18:59:25 87° SE 19:05:57 10° SW
Envisat 3.1 18:55:59 10° SSE 19:00:53 52° ENE 19:05:49 10° N
Cosmos 1975 Rocket 3.0 18:56:49 10° N 19:01:13 62° E 19:05:37 10° SSE
COSMOS 2455 3.1 18:57:07 10° S 19:02:43 43° ESE 19:05:36 26° ENE
Resurs 01 Rocket 2.8 19:06:03 26° NE 19:06:03 26° NE 19:08:40 10° N
HJ-1C 3.5 19:04:10 10° S 19:07:34 74° WSW 19:10:59 10° NNW
CZ-4C R/B 4.0 19:04:05 10° N 19:09:42 24° NE 19:10:42 23° NE
Thor Agena Rocket 3.4 19:05:50 10° NNE 19:10:56 90° NNW 19:15:58 10° SSW
BREEZE-M DEB (TANK) 3.0 19:09:15 10° SW 19:12:05 86° SE 19:15:23 25° NE
Cosmos 1943 4.3 19:09:20 10° N 19:13:11 26° NE 19:13:11 26° NE
Cosmos 494 Rocket 3.9 19:10:07 10° S 19:15:17 66° ESE 19:19:03 18° NNE
Cosmos 1110 Rocket 4.1 19:13:52 10° N 19:19:00 49° ENE 19:19:15 49° ENE
SJ-6B 3.6 19:24:09 10° S 19:27:47 48° W 19:31:31 10° NNW
ATLAS CENTAUR R/B 4.0 19:26:04 10° N 19:26:07 10° N 19:26:07 10° N
USA 267 4.3 19:30:03 26° NE 19:30:53 27° NNE 19:36:09 10° NNW
Tsikada Rocket 4.4 19:24:54 10° SSW 19:31:15 66° W 19:37:38 10° N
SL-16 R/B 3.8 19:27:50 10° NW 19:32:54 34° WSW 19:37:56 10° SSW
CENTAUR R/B 4.2 19:27:45 10° WSW 19:33:01 30° NW 19:38:57 10° NNE
OAO 1 4.4 19:30:14 10° W 19:35:46 80° S 19:36:15 72° SE
Meteor 1-13 Rocket 4.3 19:40:58 10° NNW 19:46:28 73° W 19:49:04 32° S
Okean 2 Rocket 4.5 19:45:50 10° SSW 19:49:54 37° W 19:54:00 10° N
Spot 2 Rocket 4.3 19:52:33 41° N 19:52:33 41° N 19:55:49 10° N
Cosmos 1331 Rocket 4.2 19:45:38 10° NNW 19:50:04 62° NNW 19:50:04 62° NNW
Cosmos 1603 3.6 19:46:07 10° NNW 19:51:46 79° WSW 19:52:03 77° SSW
Cosmos 2263 Rocket 2.9 20:01:05 10° SSW 20:04:55 45° SW 20:04:55 45° SW
SeaSat 1 4.3 20:30:03 26° W 20:30:03 26° W 20:33:49 10° NW
CZ-4C R/B 3.9 20:51:36 10° NNW 20:55:55 40° NW 20:55:55 40° NW
